Location: Caribou
(46.8667°N, 68.0167°W)
Time: 09:59:58
(UTC-04:00)

Daily predictions for brighter satellites

Satellite Brightness Start Highest point End
(mag) Time Altitude Azimuth Time Altitude Azimuth Time Altitude Azimuth
MetOp-B 4.2 21:03:50 10° SSE 21:09:09 70° ENE 21:14:30 10° N
Cosmos 1953 Rocket 3.6 21:06:55 10° S 21:11:17 85° E 21:15:43 10° N
ERS-1 Rocket 3.3 21:07:42 10° SSE 21:12:35 55° ENE 21:17:31 10° N
Cosmos 1437 3.0 21:12:24 10° NNW 21:15:34 65° W 21:18:42 10° S
Cosmos 1758 Rocket 3.9 21:12:02 10° SSW 21:16:27 70° W 21:20:52 10° N
USA 215 4.1 21:12:44 10° SSE 21:18:54 43° SW 21:25:07 10° WNW
Cosmos 1674 2.8 21:17:19 10° S 21:21:04 55° E 21:24:51 10° NNE
Cosmos 2251 Rocket 4.4 21:18:18 10° SSE 21:22:55 31° E 21:27:32 10° NE
Cosmos 1300 4.1 21:20:08 10° NNE 21:23:20 24° ENE 21:26:29 10° SE
CENTAUR R/B 4.0 21:16:13 10° NW 21:23:23 41° NE 21:31:13 10° ESE
Cosmos 2221 3.9 21:24:12 10° NNE 21:27:50 25° ENE 21:31:18 10° SE
Terra 3.1 21:23:56 10° ESE 21:27:54 27° ENE 21:31:52 10° N
NOSS 3-4 (A) 4.3 21:23:10 10° SSE 21:28:14 27° ESE 21:33:28 10° ENE
NOSS 3-4 (C) 4.4 21:23:17 10° SSE 21:28:20 27° ESE 21:33:32 10° ENE
Cosmos 1726 2.3 21:25:10 10° N 21:28:55 61° E 21:32:37 10° SSE
Resurs 01 Rocket 3.9 21:26:21 10° SW 21:29:49 22° W 21:33:19 10° NW
Cosmos 921 Rocket 3.4 21:27:17 10° NNW 21:31:45 66° WSW 21:36:13 10° S
SL-8 R/B 3.7 21:38:06 10° WSW 21:42:53 66° SSE 21:47:41 10° ENE
ARGOS 3.9 21:37:58 10° S 21:43:15 52° W 21:48:34 10° NNW
CZ-2C R/B 4.2 21:38:29 11° SE 21:43:32 37° ENE 21:48:43 10° N
Cosmos 2278 Rocket 2.8 21:38:39 10° S 21:43:49 38° ESE 21:49:01 10° NE
Cosmos 1461 3.8 21:42:01 10° S 21:46:12 34° ESE 21:50:31 10° NE
Iridium 81 4.1 21:45:17 10° S 21:47:48 70° W 21:50:52 10° N
APEX 2.8 21:49:25 10° NNW 21:52:30 84° WSW 21:55:17 16° SSE
Cosmos 1745 Rocket 4.0 21:46:58 10° N 21:53:21 81° E 21:59:18 12° S
Meteor 1-21 Rocket 4.4 21:48:13 10° S 21:53:57 59° E 21:59:38 10° NNE
Meteor 2-13 Rocket 4.5 21:48:07 10° N 21:54:13 76° E 21:59:47 13° SSE
COSMOS 2406 3.7 21:53:31 10° NW 21:59:10 56° WSW 22:04:22 12° S
IGS 5A 3.7 21:56:51 16° SSE 21:59:57 55° ENE 22:04:03 10° N
Cosmos 220 Rocket 3.9 21:56:09 10° SSW 22:00:21 74° ESE 22:04:35 10° NNE
Cosmos 1844 Rocket 3.3 21:54:58 10° SW 22:00:34 60° WNW 22:06:11 10° NNE
Cosmos 1844 4.1 22:01:11 10° SW 22:06:53 68° WNW 22:12:40 10° NNE
ATLAS 3B R/B 2.9 22:01:04 10° NW 22:07:35 59° WSW 22:12:52 16° SSE
CARTOSAT-1 3.6 22:06:45 18° SSE 22:09:55 70° ENE 22:14:15 10° N
Cosmos 807 4.1 22:08:21 17° S 22:10:35 83° E 22:13:59 10° N
SPOT 5 3.2 22:06:25 13° S 22:10:59 71° WSW 22:16:19 10° NNW
USA 238 4.5 22:05:01 10° NW 22:11:44 46° WSW 22:17:45 13° S
SL-14 R/B 3.2 22:09:27 15° S 22:12:38 74° E 22:16:36 10° NNE
ATLAS 5 CENTAUR R/B 2.3 22:14:23 15° S 22:17:40 36° ESE 22:22:08 10° NE
Lacrosse 5 3.2 22:13:50 10° W 22:18:40 43° NNW 22:23:31 10° NE
Cosmos 1076 Rocket 3.9 22:18:58 21° SSE 22:21:27 46° E 22:25:32 10° NNE
NOSS 2-2 (C) 4.0 22:20:40 21° S 22:22:41 35° ESE 22:26:38 10° NE
NOSS 3-2 (A) 4.3 22:16:00 10° NW 22:23:23 60° WSW 22:29:42 18° SSE
S3M 4.4 22:17:24 10° SSW 22:23:43 67° W 22:30:08 10° N
SPOT 1/Viking Rocket 4.0 22:20:08 14° S 22:24:31 56° W 22:29:37 10° NNW
SL-27 R/B 3.5 22:21:21 10° N 22:24:46 37° ENE 22:26:36 22° ESE
H-2A R/B 3.8 22:20:18 10° SSW 22:24:52 29° W 22:29:32 10° NW
Cosmos 1709 Rocket 4.0 22:20:22 10° N 22:26:37 74° E 22:31:05 20° SSE
Cosmos 2297 4.5 22:25:02 20° SSE 22:28:06 33° ESE 22:33:10 10° NE
Cosmos 2082 Rocket 2.4 22:23:24 10° NNW 22:29:07 64° ENE 22:33:00 21° SE
Cosmos 1833 Rocket 2.8 22:24:15 10° NNW 22:29:52 72° ENE 22:33:38 21° SE
Helios 1B rocket 2.4 22:26:17 10° NNE 22:30:25 89° W 22:33:40 16° SSW
Helios 1A 4.0 22:28:25 14° SSW 22:31:42 41° W 22:35:43 10° NNW
Cosmos 1626 2.1 22:31:41 25° S 22:33:41 66° E 22:37:23 10° NNE
CZ-2C R/B 3.0 22:31:12 10° NNE 22:36:28 48° E 22:39:35 23° SSE
Cosmos 1703 4.1 22:36:57 26° SE 22:38:19 34° E 22:41:52 10° NNE
YAOGAN 11 4.2 22:36:52 24° SSE 22:39:37 87° ENE 22:44:10 10° NNW
ATLAS 2AS CENTAUR R/B 4.0 22:34:02 10° WSW 22:41:46 52° NW 22:49:42 10° NE
Cosmos 2058 4.3 22:41:41 21° ESE 22:42:55 24° E 22:46:16 10° NE
Aureole 3 Rocket 4.0 22:37:55 17° S 22:43:44 70° E 22:49:04 10° NNE
H-2A R/B 4.4 22:47:03 10° E 22:48:48 13° ENE 22:50:34 10° NNE
NOSS 3-2 (C) 4.3 22:41:53 10° NW 22:49:15 57° WSW 22:54:47 21° S
Cosmos 1455 2.3 22:53:58 10° N 22:57:44 63° E 22:59:05 36° SSE
Cosmos 1300 4.5 22:55:45 10° NNW 22:58:58 26° W 23:01:28 14° SW
Cosmos 2221 3.9 23:01:35 10° NNW 23:05:26 32° W 23:08:10 16° SW
Terra 2.8 23:02:30 19° SSW 23:05:28 40° W 23:09:58 10° NNW
Cosmos 1992 Rocket 4.2 23:00:49 10° NNW 23:05:59 64° WSW 23:08:42 28° S
Cosmos 2315 Rocket 4.2 23:02:11 16° SSW 23:07:17 73° W 23:13:41 10° N
RESURS DK-1 2.3 23:06:04 31° S 23:07:54 67° ESE 23:12:01 10° NNE
ADEOS Rocket 4.0 23:03:38 10° NNE 23:08:56 31° E 23:11:41 23° SE
Okean 3 Rocket 3.8 23:06:53 22° SSW 23:09:34 64° WNW 23:13:56 10° N
COBE Rocket 4.0 23:08:19 10° NNE 23:13:26 74° E 23:16:06 29° S
CENTAUR R/B 3.2 23:06:53 10° NW 23:14:47 74° SW 23:20:13 25° SSE
NOSS 2-2 (E) 3.8 23:12:01 10° SW 23:15:55 68° NW 23:20:36 10° NE
NOSS 3-4 (A) 3.9 23:12:27 10° SW 23:18:36 66° NW 23:25:08 10° NE
NOSS 3-4 (C) 3.9 23:12:32 10° SW 23:18:41 67° NW 23:25:13 10° NE
Cosmos 1328 Rocket 3.5 23:14:49 10° N 23:19:11 72° E 23:20:48 37° SSE
Cosmos 2184 Rocket 4.0 23:13:55 10° N 23:20:18 78° E 23:23:43 29° SSE
Cosmos 2228 Rocket 3.6 23:16:46 10° N 23:21:07 50° ENE 23:22:45 33° SE
CZ-2C R/B 4.3 23:19:33 19° SSW 23:23:18 40° W 23:28:41 10° NNW
SAR-Lupe-4 3.5 23:23:20 47° S 23:24:15 77° WSW 23:27:51 10° NNW
Meteor 1-11 4.4 23:20:56 23° SSW 23:24:41 78° WNW 23:30:32 10° N
SL-8 R/B 3.9 23:20:39 10° W 23:25:29 73° N 23:30:20 10° E
Meteor 2-10 Rocket 3.9 23:21:02 10° N 23:26:05 53° ENE 23:28:32 29° SE
Cosmos 1743 Rocket 4.0 23:25:25 36° SE 23:26:43 47° E 23:30:58 10° NNE
Cosmos 2154 Rocket 4.4 23:21:17 10° N 23:27:31 53° ENE 23:30:55 27° SE
Cosmos 2278 Rocket 3.5 23:22:34 10° WSW 23:27:52 39° NW 23:33:13 10° NNE
COSMOS 2487 3.8 23:24:42 10° N 23:27:55 32° ENE 23:28:58 26° E
Spot 4 4.3 23:33:05 30° SSW 23:35:15 54° W 23:40:02 10° NNW
CZ-4C R/B 4.1 23:34:03 31° ESE 23:35:16 40° ENE 23:38:49 10° N
ATLAS 3B CENTAUR R/B 4.5 23:28:02 10° SW 23:35:04 19° SSW 23:35:04 19° SSW
Cosmos 407 Rocket 3.4 23:35:40 34° S 23:37:52 69° ESE 23:43:02 10° NNE
Cosmos 1441 Rocket 3.3 23:34:54 10° NNW 23:38:40 64° W 23:39:35 46° SSW
SAR-Lupe-1 4.4 23:41:45 45° SW 23:42:28 55° WSW 23:46:01 10° NNW
NOSS 8 (E) 4.2 23:45:28 69° S 23:45:46 78° SE 23:49:10 10° NE
SL-19 R/B 4.1 23:40:23 10° NNE 23:45:53 73° ESE 23:48:11 35° S
Meteor 2-21 Rocket 4.4 23:40:16 10° N 23:46:21 76° E 23:49:17 32° SSE
Cosmos 405 Rocket 2.8 23:47:21 10° NNW 23:51:00 59° W 23:51:43 48° SW
Cosmos 1500 Rocket 3.5 23:50:19 45° SSE 23:51:30 69° E 23:55:50 10° NNE
Cosmos 1190 Rocket 3.9 23:49:21 32° SSW 23:51:53 90° NNW 23:57:08 10° NNE
NOSS 8 (H) 4.3 23:55:59 62° ESE 23:55:59 62° ESE 23:59:17 10° NE
